This demonstration page uses our WeatherBlox Daily Observations layout. Learn more.

Left ArrowRight Arrow

Hourly Observations for January 1, 2020

Temp ( °F °C ) Dew Point ( °F °C ) Humidity (%) Winds ( mph kmh ) Pressure ( in mb ) Visibility ( mi km ) Precip ( " mm )
12:53 am 00:53 Clear 42 5.6 27 -2.8 55 55 W 5 7 30.03 1017 10 16 0.00 0.00
1:53 am 01:53 Clear 41 5 27 -2.8 57 57 SW 3 6 30.04 1017 10 16 0.00 0.00
2:53 am 02:53 Clear 39 3.9 27 -2.8 62 62 Calm 30.03 1017 10 16 0.00 0.00
3:53 am 03:53 Clear 40 4.4 26 -3.3 58 58 Calm 30.03 1017 10 16 0.00 0.00
4:53 am 04:53 Clear 39 3.9 26 -3.3 60 60 WSW 3 6 30.03 1017 10 16 0.00 0.00
5:53 am 05:53 Clear 39 3.9 26 -3.3 60 60 SSW 3 6 30.05 1018 10 16 0.00 0.00
6:53 am 06:53 Clear 39 3.9 25 -3.9 57 57 Calm 30.07 1018 10 16 0.00 0.00
7:53 am 07:53 Sunny 38 3.3 25 -3.9 60 60 Calm 30.08 1019 10 16 0.00 0.00
8:53 am 08:53 Sunny 38 3.3 27 -2.8 65 65 WNW 3 6 30.09 1019 10 16 0.00 0.00
9:53 am 09:53 Sunny 44 6.7 28 -2.2 53 53 Calm 30.10 1019 10 16 0.00 0.00
10:53 am 10:53 Sunny 49 9.4 27 -2.8 43 43 VRB 6 9 30.10 1019 10 16 0.00 0.00
11:53 am 11:53 Sunny 51 10.6 22 -5.6 32 32 WNW 10 17 30.09 1019 10 16 0.00 0.00
12:53 pm 12:53 Sunny 54 12.2 19 -7.2 25 25 NNW 12 19 30.04 1017 10 16 0.00 0.00
1:53 pm 13:53 Sunny 54 12.2 19 -7.2 25 25 NW 13 20 30.02 1017 10 16 0.00 0.00
2:53 pm 14:53 Sunny 55 12.8 19 -7.2 24 24 WNW 7 11 30.00 1016 10 16 0.00 0.00
3:53 pm 15:53 Sunny 56 13.3 19 -7.2 24 24 W 7 11 30.01 1016 10 16 0.00 0.00
4:53 pm 16:53 Sunny 54 12.2 20 -6.7 26 26 WNW 3 6 30.00 1016 10 16 0.00 0.00
5:53 pm 17:53 Clear 51 10.6 24 -4.4 35 35 Calm 30.02 1017 10 16 0.00 0.00
6:53 pm 18:53 Clear 48 8.9 27 -2.8 44 44 Calm 30.01 1016 10 16 0.00 0.00
7:53 pm 19:53 Clear 46 7.8 28 -2.2 50 50 Calm 30.03 1017 10 16 0.00 0.00
8:53 pm 20:53 Clear 45 7.2 31 -0.6 58 58 Calm 30.04 1017 10 16 0.00 0.00
9:53 pm 21:53 Clear 43 6.1 32 0 65 65 Calm 30.03 1017 10 16 0.00 0.00
10:53 pm 22:53 Clear 43 6.1 31 -0.6 63 63 Calm 30.03 1017 10 16 0.00 0.00
11:53 pm 23:53 Clear 42 5.6 33 0.6 71 71 Calm 30.03 1017 10 16 0.00 0.00

Powered by AerisWeather